When you browse on this site, cookies collect data to enhance your experience and personalize the content and advertising you see.
Visit our Privacy Policy to learn more. By continuing to use the site, you agree to this use of cookies and data.
  • In Portugal
  • List of Countries
  • For 7 days
  • Water Temperature
  • Satellite Maps
  • Weather Map
  • Weather Widgets
  • user-avatar
    Login

    Hourly Weather Encamp

    Today, 15 December, Saturday

    Time Temperature Precipitation Wind Pressure Humidity
    00:00 -4°C° 0 mm 2 mps 623 mmHg 85%
    01:00 -4°C° 0 mm 2 mps 623 mmHg 83%
    02:00 -3°C° 0 mm 2 mps 623 mmHg 81%
    03:00 -3°C° 0 mm 2 mps 623 mmHg 80%
    04:00 -3°C° 0 mm 2 mps 623 mmHg 77%
    05:00 -3°C° 0 mm 2 mps 623 mmHg 74%
    06:00 -3°C° 0 mm 2 mps 623 mmHg 71%
    07:00 -2°C° 0 mm 2 mps 624 mmHg 67%
    08:00 +2°C° 0 mm 1 mps 624 mmHg 64%
    09:00 +3°C° 0 mm 1 mps 625 mmHg 60%
    10:00 +5°C° 0 mm 1 mps 626 mmHg 59%
    11:00 +7°C° 0 mm 1 mps 626 mmHg 57%
    12:00 +8°C° 0 mm 1 mps 627 mmHg 56%
    13:00 +7°C° 0.4 mm 1 mps 626 mmHg 64%
    14:00 +6°C° 0.4 mm 1 mps 625 mmHg 72%
    15:00 +5°C° 0.4 mm 1 mps 625 mmHg 80%
    16:00 +5°C° 0.3 mm 1 mps 624 mmHg 82%
    17:00 +4°C° 0.3 mm 1 mps 624 mmHg 84%
    18:00 +4°C° 0.3 mm 1 mps 624 mmHg 86%
    19:00 +4°C° 0 mm 1 mps 624 mmHg 87%
    20:00 +4°C° 0 mm 1 mps 624 mmHg 87%
    21:00 +4°C° 0 mm 1 mps 624 mmHg 87%
    22:00 +4°C° 0 mm 1 mps 624 mmHg 88%
    23:00 +4°C° 0 mm 1 mps 624 mmHg 88%

    Tomorrow, 16 December, Sunday

    Time Temperature Precipitation Wind Pressure Humidity
    00:00 +4°C° 0 mm 1 mps 624 mmHg 89%
    01:00 +4°C° 0.1 mm 1 mps 623 mmHg 89%
    02:00 +3°C° 0.1 mm 1 mps 623 mmHg 90%
    03:00 +3°C° 0.1 mm 1 mps 623 mmHg 90%
    04:00 +3°C° 0.4 mm 1 mps 623 mmHg 91%
    05:00 +3°C° 0.4 mm 1 mps 623 mmHg 92%
    06:00 +2°C° 0.4 mm 0 mps 623 mmHg 93%
    07:00 +3°C° 0.5 mm 1 mps 623 mmHg 93%
    08:00 +4°C° 0.5 mm 1 mps 623 mmHg 92%
    09:00 +4°C° 0.5 mm 1 mps 623 mmHg 91%
    10:00 +4°C° 0.8 mm 1 mps 623 mmHg 91%
    11:00 +3°C° 0.8 mm 2 mps 623 mmHg 92%
    12:00 +3°C° 0.8 mm 2 mps 623 mmHg 92%
    13:00 +3°C° 0.3 mm 2 mps 622 mmHg 91%
    14:00 +3°C° 0.3 mm 2 mps 622 mmHg 90%
    15:00 +2°C° 0.3 mm 3 mps 622 mmHg 88%
    16:00 +2°C° 0.1 mm 2 mps 622 mmHg 91%
    17:00 +2°C° 0.1 mm 2 mps 622 mmHg 94%
    18:00 +2°C° 0.1 mm 1 mps 622 mmHg 96%
    19:00 +1°C° 0.1 mm 2 mps 622 mmHg 95%
    20:00 -1°C° 0.1 mm 2 mps 623 mmHg 94%
    21:00 -1°C° 0.1 mm 2 mps 623 mmHg 93%
    22:00 -1°C° 0.3 mm 2 mps 623 mmHg 92%
    23:00 -1°C° 0.3 mm 2 mps 623 mmHg 90%

    Day after tomorrow, 17 December, Monday

    Time Temperature Precipitation Wind Pressure Humidity
    00:00 -2°C° 0.3 mm 3 mps 624 mmHg 89%
    01:00 -2°C° 0 mm 3 mps 624 mmHg 87%
    02:00 -4°C° 0 mm 3 mps 624 mmHg 86%
    03:00 -4°C° 0 mm 3 mps 624 mmHg 84%
    04:00 -5°C° 0 mm 3 mps 624 mmHg 83%
    05:00 -5°C° 0 mm 3 mps 624 mmHg 83%
    06:00 -6°C° 0 mm 3 mps 625 mmHg 82%
    07:00 -5°C° 0 mm 3 mps 626 mmHg 79%
    08:00 -4°C° 0 mm 3 mps 626 mmHg 76%
    09:00 -2°C° 0 mm 2 mps 627 mmHg 73%
    10:00 -1°C° 0 mm 2 mps 628 mmHg 68%
    11:00 +1°C° 0 mm 2 mps 628 mmHg 62%
    12:00 +3°C° 0 mm 2 mps 629 mmHg 57%
    13:00 +2°C° 0 mm 2 mps 629 mmHg 58%
    14:00 +3°C° 0 mm 1 mps 629 mmHg 60%
    15:00 +3°C° 0 mm 1 mps 629 mmHg 62%
    16:00 +2°C° 0 mm 1 mps 628 mmHg 67%
    17:00 0°C° 0 mm 1 mps 628 mmHg 72%
    18:00 -1°C° 0 mm 1 mps 628 mmHg 77%
    19:00 -1°C° 0 mm 1 mps 628 mmHg 75%
    20:00 -2°C° 0 mm 1 mps 628 mmHg 73%
    21:00 -2°C° 0 mm 1 mps 628 mmHg 71%
    22:00 -2°C° 0 mm 1 mps 627 mmHg 70%
    23:00 -2°C° 0 mm 1 mps 627 mmHg 70%

    18 December, Tuesday

    Time Temperature Precipitation Wind Pressure Humidity
    00:00 -2°C° 0 mm 1 mps 627 mmHg 70%
    01:00 -3°C° 0 mm 2 mps 627 mmHg 69%
    02:00 -3°C° 0 mm 2 mps 626 mmHg 68%
    03:00 -3°C° 0 mm 2 mps 626 mmHg 68%
    04:00 -3°C° 0 mm 2 mps 626 mmHg 68%
    05:00 -3°C° 0 mm 2 mps 625 mmHg 68%
    06:00 -3°C° 0 mm 2 mps 625 mmHg 68%
    07:00 -2°C° 0 mm 2 mps 625 mmHg 64%
    08:00 -1°C° 0 mm 2 mps 626 mmHg 60%
    09:00 +1°C° 0 mm 2 mps 626 mmHg 56%
    10:00 +1°C° 0 mm 3 mps 626 mmHg 54%
    11:00 +2°C° 0 mm 3 mps 626 mmHg 52%
    12:00 +4°C° 0 mm 3 mps 626 mmHg 50%
    13:00 +3°C° 0 mm 3 mps 625 mmHg 53%
    14:00 +3°C° 0 mm 3 mps 625 mmHg 56%
    15:00 +2°C° 0 mm 3 mps 624 mmHg 60%
    16:00 +1°C° 0 mm 3 mps 624 mmHg 63%
    17:00 +2°C° 0 mm 2 mps 623 mmHg 65%
    18:00 +1°C° 0 mm 2 mps 623 mmHg 68%
    19:00 +1°C° 0 mm 2 mps 623 mmHg 70%
    20:00 -1°C° 0 mm 2 mps 623 mmHg 71%
    21:00 -1°C° 0 mm 2 mps 623 mmHg 73%
    22:00 -1°C° 0 mm 2 mps 623 mmHg 74%
    23:00 +1°C° 0 mm 1 mps 623 mmHg 75%

    19 December, Wednesday

    Time Temperature Precipitation Wind Pressure Humidity
    00:00 +1°C° 0 mm 1 mps 623 mmHg 76%
    01:00 +1°C° 0.1 mm 1 mps 623 mmHg 79%
    02:00 +1°C° 0.1 mm 1 mps 622 mmHg 81%
    03:00 0°C° 0.1 mm 1 mps 622 mmHg 84%
    04:00 0°C° 0.3 mm 1 mps 622 mmHg 86%
    05:00 0°C° 0.3 mm 1 mps 622 mmHg 88%
    06:00 0°C° 0.3 mm 1 mps 622 mmHg 91%
    07:00 +1°C° 0.2 mm 1 mps 623 mmHg 89%
    08:00 +1°C° 0.2 mm 1 mps 623 mmHg 88%
    09:00 +1°C° 0.2 mm 1 mps 624 mmHg 87%
    10:00 +2°C° 0 mm 1 mps 624 mmHg 83%
    11:00 +3°C° 0 mm 1 mps 624 mmHg 78%
    12:00 +4°C° 0 mm 1 mps 625 mmHg 74%
    13:00 +2°C° 0.2 mm 2 mps 624 mmHg 75%
    14:00 +2°C° 0.2 mm 2 mps 624 mmHg 76%
    15:00 +2°C° 0.2 mm 2 mps 624 mmHg 78%
    16:00 -1°C° 0.1 mm 2 mps 624 mmHg 80%
    17:00 -2°C° 0.1 mm 2 mps 624 mmHg 82%
    18:00 -3°C° 0.1 mm 2 mps 624 mmHg 84%
    19:00 -4°C° 0 mm 2 mps 624 mmHg 81%
    20:00 -4°C° 0 mm 2 mps 624 mmHg 77%
    21:00 -5°C° 0 mm 2 mps 624 mmHg 73%
    22:00 -3°C° 0 mm 1 mps 624 mmHg 71%
    23:00 -3°C° 0 mm 1 mps 624 mmHg 70%

    20 December, Thursday

    Time Temperature Precipitation Wind Pressure Humidity
    00:00 -3°C° 0 mm 1 mps 624 mmHg 68%
    01:00 -3°C° 0 mm 1 mps 625 mmHg 68%
    02:00 -4°C° 0 mm 2 mps 625 mmHg 68%
    03:00 -4°C° 0 mm 2 mps 625 mmHg 68%
    04:00 -4°C° 0 mm 2 mps 625 mmHg 70%
    05:00 -4°C° 0 mm 2 mps 625 mmHg 72%
    06:00 -4°C° 0 mm 2 mps 625 mmHg 75%
    07:00 -3°C° 0 mm 2 mps 626 mmHg 73%
    08:00 0°C° 0 mm 1 mps 627 mmHg 72%
    09:00 0°C° 0 mm 1 mps 627 mmHg 70%
    10:00 +1°C° 0 mm 2 mps 628 mmHg 68%
    11:00 +2°C° 0 mm 2 mps 628 mmHg 65%
    12:00 +3°C° 0 mm 2 mps 629 mmHg 62%
    13:00 +3°C° 0 mm 2 mps 629 mmHg 63%
    14:00 +3°C° 0 mm 2 mps 629 mmHg 63%
    15:00 +2°C° 0 mm 2 mps 629 mmHg 64%
    16:00 +1°C° 0 mm 2 mps 628 mmHg 69%
    17:00 -2°C° 0 mm 2 mps 628 mmHg 73%
    18:00 -3°C° 0 mm 2 mps 628 mmHg 78%
    19:00 -3°C° 0 mm 2 mps 628 mmHg 76%
    20:00 -3°C° 0 mm 2 mps 628 mmHg 74%
    21:00 -3°C° 0 mm 2 mps 628 mmHg 72%
    22:00 -3°C° 0 mm 2 mps 628 mmHg 72%
    23:00 -3°C° 0 mm 2 mps 628 mmHg 72%
    Show more